Regional Weather Roundup
Issued by NWS Wakefield, VA

Home | Current Version | Previous Version | Graphics & Text | Print | Product List | Glossary On
Versions: 1 2 3 4 5 6 7 8 9 10 11 12 13 14 15 16 17 18 19 20 21 22 23 24 25 26 27
000
ASUS41 KAKQ 191410
RWRAKQ

REGIONAL WEATHER ROUNDUP
NATIONAL WEATHER SERVICE WAKEFIELD VA
1000 AM EDT SAT APR 19 2014

Note: "fair" indicates few or no clouds below 12,000 feet with no
significant weather and/or obstructions to visibility. * = Denotes
station may not report precipitation (e.g., rain,snow,etc.),
thunder or fog.

VAZ042-051-052>054-056-191500-
NORTHERN VIRGINIA

CITY           SKY/WX    TMP DP  RH WIND       PRES   REMARKS
WASH NATIONAL  PTSUNNY   54  38  54 CALM      30.32R
DULLES         CLOUDY    51  38  60 N3        30.31R
FORT BELVOIR   PTSUNNY   53  40  62 VRB2      30.32R
QUANTICO       PTSUNNY   52  42  69 E7        30.33R
FREDERICKSBRG* PTSUNNY   54  43  66 N3        30.30S
STAFFORD*      PTSUNNY   53  43  68 NE6       30.35R
WARRENTON      PTSUNNY   54  46  76 NE6       30.30S
CULPEPER*      PTSUNNY   54  41  62 N3        30.31S
MANASSAS*      NOT AVBL
LEESBURG*      PTSUNNY   54  41  62 NE6       30.32S
WINCHESTER     PTSUNNY   54  37  54 NE6       30.31S
$$

VAZ048-049-060>072-079>083-191500-
CENTRAL AND SOUTH CENTRAL VIRGINIA...AND NORTH CENTRAL NORTH CAROLINA

CITY           SKY/WX    TMP DP  RH WIND       PRES   REMARKS
RICHMOND       CLOUDY    51  42  71 NE7       30.27S
CHESTERFIELD*  NOT AVBL
HANOVER        CLOUDY    50  41  71 N7        30.30S
TAPPAHANNOCK*  CLOUDY    51  41  66 N7        30.29S
CHARLOTTSVILLE PTSUNNY   53  40  61 N7        30.28S
ORANGE*        PTSUNNY   54  43  66 NW6       30.30S
LOUISA*        PTSUNNY   55  41  58 NE6       30.28R
FARMVILLE*     CLOUDY    54  43  66 N8        30.24F
SOUTH HILL*    LGT RAIN  48  48 100 NE8       30.27F
ROANOKE RAPIDS CLOUDY    48  45  87 NE10G18   30.20F
RALEIGH        LGT RAIN  47  43  86 NE12      30.16F FOG
$$

VAZ088>098-191500-
SOUTHEAST VIRGINIA

CITY           SKY/WX    TMP DP  RH WIND       PRES   REMARKS
NORFOLK        LGT RAIN  48  43  82 NE10      30.24S
VIRGINIA BEACH LGT RAIN  48  42  80 NE15      30.24R
NORFOLK NAVAL  LGT RAIN  50  44  80 NE15      30.26S
WEST POINT*    CLOUDY    52  43  72 NE5       30.30R
NEWPORT NEWS   LGT RAIN  51  45  79 NE8G16    30.26S
LANGLEY AFB    CLOUDY    48  48 100 NE12      30.26S
FORT EUSTIS    DRIZZLE   49  47  93 NE6       30.24F
WILLIAMSBURG*    N/A     50  48  93 CALM      30.27F
FRANKLIN*      CLOUDY    48 N/A N/A NE8       30.24S
WAKEFIELD      LGT RAIN  48  45  89 NE6       30.25S
$$

VAZ020-022-025-037-045-191500-
WESTERN AND SOUTHWEST VIRGINIA

CITY           SKY/WX    TMP DP  RH WIND       PRES   REMARKS
STAUNTON*      PTSUNNY   54  41  61 NE6       30.29S
HOT SPRINGS VA CLOUDY    48  34  57 E8        30.29R
LYNCHBURG      CLOUDY    57  40  52 N12       30.25R
DANVILLE       CLOUDY    49  44  83 NE13      30.22S
MARTINSVILLE   CLOUDY    49  46  87 NE3       30.24R
ROANOKE        CLOUDY    54  40  59 NE6       30.25S
BLACKSBURG     CLOUDY    52  43  71 E6        30.24S
DUBLIN*        CLOUDY    50  42  74 CALM      30.24R
MARION*        CLOUDY    49  40  69 SE3       30.24R
HILLSVILLE*    CLOUDY    46  37  71 CALM      30.23S
RICHLANDS*     CLOUDY    56  33  42 NE7       30.21S
WISE*          PTSUNNY   55  32  41 NE10      30.23S
ABINGDON*      CLOUDY    57  35  42 E10       30.19R
$$

MDZ021>025-VAZ099-100-191500-
SOUTHERN MARYLAND AND THE DELMARVA PENINSULA

CITY           SKY/WX    TMP DP  RH WIND       PRES   REMARKS
PATUXENT RIVER CLOUDY    52  43  71 NE5       30.30S
BAY BRIDGE APT CLOUDY    52  43  71 W5        30.31S
LEONARDTOWN    CLOUDY    52  41  66 E5        30.31S
DOVER          CLOUDY    51  45  81 VRB6      30.27R
GEORGETOWN     CLOUDY    53  39  59 N3        30.31R
EASTON           N/A     54  48  82 CALM      30.34S
CAMBRIDGE      CLOUDY    52  43  71 NW5       30.30S
SALISBURY      CLOUDY    53  42  66 CALM      30.29F
OCEAN CITY     CLOUDY    49  42  77 E6        30.30S
WALLOPS ISLAND CLOUDY    51  44  77 NE10      30.29S
ACCOMACK*      CLOUDY    48  41  76 NE7       30.27F
$$

NCZ012>017-030>032-191500-
EASTERN NORTH CAROLINA

CITY           SKY/WX    TMP DP  RH WIND       PRES   REMARKS
ELIZABETH CITY LGT RAIN  49  42  77 NE13      30.23R
AHOSKIE*       CLOUDY    48  45  88 N9        30.21F
EDENTON*       RAIN      47  45  91 NE7       30.19S
CURRITUCK*     CLOUDY    49  42  77 NE10      30.23S
KILL DEVIL HLS LGT RAIN  47  45  90 N9G18     30.18S
MANTEO         DRIZZLE   47  44  88 NE18G24   30.19S
CAPE HATTERAS  RAIN      50  50 100 NE14G29   30.13R FOG
GOLDSBORO      LGT RAIN  48  48 100 NE12G21   30.09F
WASHINGTON     CLOUDY    48  44  86 NE8       30.16R
GREENVILLE     LGT RAIN  46  45  93 NE9       30.16S
NEW BERN       RAIN      54  48  82 NE15G23   30.11F FOG
WILMINGTON     CLOUDY    56  53  90 NW12      30.05R
$$

VAZ048-191500-
ELSEWHERE

CITY           SKY/WX    TMP DP  RH WIND       PRES   REMARKS
HARRISBURG PA  PTSUNNY   58  32  37 N12       30.31R
BALTIMORE      PTSUNNY   53  37  54 NE3       30.30R
ANNAPOLIS      CLOUDY    53  39  59 NW3       30.31S
ANDREWS AFB    PTSUNNY   51  39  61 VRB3      30.30S
WILMINGTON DE  PTSUNNY   53  38  56 CALM      30.31R
PHILADELPHIA   PTSUNNY   56  36  47 N8        30.31R
WILDWOOD NJ*   CLOUDY    48  39  71 W6        30.32R
ATLANTIC CITY  CLOUDY    50  40  68 NW6       30.30R
HENDERSON NC   CLOUDY    46  43  88 N10       30.20S
GREENSBORO     LGT RAIN  47  44  90 NE15      30.17R
ROCKY MOUNT    LGT RAIN  47  44  90 NE13      30.16F
FAYETTEVILLE   CLOUDY    51  47  86 NE18      30.09R
CHARLOTTE      RAIN      48  47  96 N14       30.16R FOG
$$

VAZ100-191500-
MARINE

STATION/POSITION TIME  TEMP    WIND        PRES    WAVE   SWELL
                       AIR SEA DIR/SP/G            HT/PER HT/PER
                 (UTC) (F)     (DEG/KT/KT) (MB)    (FT/S) (FT/S)
44066 TX TWR #4  1400   44 44  290/  6/  8 1025.1R   5/10   5/10
CAPE MAY NJ      1400   47 52  310/  5/  6 1026.0R
LEWES DE         1400   47 48  320/  5/  5 1025.6R
15NM E FENWICK I 1400   46 45              1026.1R   5/ 9
OCEAN-CITY-INLET 1400   46 47   70/  4/  5 1025.7F
WACHAPREAGUE VA  1400   47 52   30/ 10/ 12 1024.8R
THOMAS POINT MD  1400   49 52   CALM  /  1 1026.8S
GOOSES REEF MD   1400   49     330/  2/  4 1027.8S
COVE POINT MD    1400   48     360/  5/  5 1026.0S
SOLOMONS ISLAND  1400      52                N/A
BISHOPS HEAD MD  1400   51 53   30/  5/  8 1025.7S
PINEY POINT MD   1400           10/  2/  2   N/A
POTOMAC MD       1400   49      40/  8/ 10 1025.5S
CAMBRIDGE MD     1400   48 55  350/  2/  3 1025.8S
LEWISETTA VA     1400   49 53   30/  4/  6 1025.7F
RAPPAHANNOCK LGT 1400           30/ 15/ 17 1025.4S
STINGRAY PT      1400   49      40/ 14/ 16 1025.1F
YORK RVR RNG VA  1400   49      50/ 13/ 16 1024.1F
YORKTOWN VA      1400   49 54   40/  9/ 10 1024.6S
JAMESTOWN VA     1400   47      60/  6/  8   N/A
DOMINION TERM VA 1400   48      30/  4/  8 1024.3R
KIPTOPEKE VA     1400      52   50/  9/ 14   N/A
CHES BAY BRIDGE  1400   48 51   30/ 16/ 19 1024.0R
CAPE HENRY VA    1400   47      30/ 17/ 21   N/A
CHESAPEAKE LGHT  1300   46      40/ 18/ 20 1024.1F
WILLOUBY STN VA  1400   48      40/ 16/ 17 1023.4R
S CRANEY ISL VA  1400           10/ 14/ 17 1024.3S
CAPE HENRY BUOY  1400      47                N/A     5/10   2/11
1ST LANDING BUOY 1400      45                N/A     5/10   3/10
64NM E OF VA BCH 1400   50 48   30/ 17/ 19 1022.9R   7/11   5/11
DUCK PIER NC     1400   47 49   30/ 23/ 25 1021.9R
44100 DUCK FRF   1400      48                N/A     6/ 9   2/11
44056 DUCK FRF   1400      47                N/A     6/ 9   2/11
OREGON INLET NC  1400   48 51   20/ 19/ 25 1021.4F
HATTERAS NC      1400   52 56   30/ 20/ 28 1020.1R
CAPE LOOKOUT NC  1300   55      30/ 27/ 33 1018.2F
FRYING PAN SHLS  1400   66 67   30/  8/ 10 1014.0R   7/ 6   7/ 6
$$



USA.gov is the U.S. government's official web portal to all federal, state and local government web resources and services.